Content
SEND FEEDBACK

Daily
Averages
Monthly
Summary
Indonesia

PONTIANAK, INDONESIA


Home > Asia > Indonesia
Elevation: 10 feet     Latitude: 00 09S     Longitude: 109 24E

WEATHER
 
SELECT A DAY
Number of Records: 75,378;   Date Range: 6/19/04 - 7/30/14
 
SHARE

PRINT THIS DATA

[ ← Previous Day ]
WEATHER ALMANAC - FEBRUARY 13, 2013
[ Next Day → ]
[ °C ]   °F
Weather ElementAverageHighLow
Temperature79 °F91.4 °F (12:30 pm) (11:30 am)
Dewpoint73.9 °F78 °F (4:00 pm) (7:00 pm)
Humidity84.8 %100 % (6:00 am)52 % (1:00 pm)
Barometer28.95 in29.84 in (10:00 pm) (7:00 pm)
Wind Speed3.2 mph12.7 mph (1:30 pm)
Weather ElementAverage
Visibility4.8 mi
Wind DirectionSE (132.6 °)

Weather ElementTotal
Precipitation---
Heating Degree Days19.3 (Base 65)
Averaged from 37 records on February 13, 2013
WEATHER CONDITIONS BREAKOUT
WIND DIRECTION BREAKOUT
WEATHER BY HOUR - FEBRUARY 13, 2013
[ °C ]   °F
Local TimeTemperatureDewpointHumidityBarometerVisibilityWind DirectionWind SpeedGust SpeedPrecipitationEventsConditions
4:00 AM77.0 °F74.0 °F90 %29.76 in4.0 miCalmPartly Cloudy
5:00 AM77.0 °F75.2 °F94 %29.77 in4.3 miCalmScattered Clouds
6:00 AM75.2 °F75.2 °F100 %29.77 in4.3 miCalmMostly Cloudy
6:30 AM77.0 °F75.2 °F94 %29.77 in5.0 miCalmScattered Clouds
7:00 AM77.0 °F76.0 °F94 %29.80 in6.0 miEast (90°)3.5 mphScattered Clouds
7:00 AM77.0 °F75.2 °F94 %29.77 in6.2 miEast (90°)3.5 mphScattered Clouds
8:00 AM80.6 °F77.0 °F89 %29.80 in6.2 miCalmMostly Cloudy
8:30 AM80.6 °F77.0 °F89 %29.80 in6.2 miCalmMostly Cloudy
9:00 AM82.4 °F77.0 °F84 %29.80 in6.2 miCalmMostly Cloudy
9:30 AM84.2 °F75.2 °F74 %29.80 in6.2 miCalmMostly Cloudy
10:00 AM85.0 °F75.0 °F66 %29.81 in6.0 miCalmMostly Cloudy
10:00 AM86.0 °F75.2 °F70 %29.80 in6.2 miCalmMostly Cloudy
10:30 AM87.8 °F75.2 °F66 %29.77 in6.2 miEast (100°)3.5 mphMostly Cloudy
11:00 AM89.6 °F75.2 °F62 %29.77 in6.2 miCalmMostly Cloudy
11:30 AM0.0 °F0.0 °F6.2 miCalmMostly Cloudy
12:30 PM91.4 °F75.2 °F59 %29.74 in6.2 miWest (270°)5.8 mphPartly Cloudy
1:00 PM91.0 °F75.0 °F52 %29.75 in6.0 miSW (230°)10.4 mphMostly Cloudy
1:00 PM91.4 °F75.2 °F59 %29.74 in6.2 miSW (230°)10.4 mphPartly Cloudy
1:30 PM91.4 °F75.2 °F59 %29.71 in6.2 miSW (220°)12.7 mphMostly Cloudy
2:00 PM82.4 °F77.0 °F84 %29.71 in0.5 miWSW (250°)12.7 mphMostly Cloudy
2:30 PM78.8 °F77.0 °F94 %29.71 in3.7 miSW (220°)9.2 mphMostly Cloudy
3:00 PM78.8 °F75.2 °F89 %29.71 in4.3 miWSW (250°)3.5 mphRain-ThunderstormThunderstorms and Rain
3:30 PM78.8 °F75.2 °F89 %29.68 in5.0 miNNW (340°)3.5 mphThunderstormThunderstorm
4:00 PM80.0 °F78.0 °F92 %29.70 in6.0 miWest (260°)3.5 mphThunderstormLight Thunderstorm
4:00 PM78.8 °F77.0 °F94 %29.68 in6.2 miWest (260°)3.5 mphScattered Clouds
5:00 PM80.6 °F77.0 °F89 %29.68 in6.2 miWNW (300°)3.5 mphMostly Cloudy
5:30 PM80.6 °F77.0 °F89 %29.71 in6.2 miNNW (330°)3.5 mphMostly Cloudy
6:00 PM78.8 °F77.0 °F94 %29.71 inWest (270°)3.5 mphMostly Cloudy
6:30 PM78.8 °F77.0 °F94 %29.74 in3.7 miCalmMostly Cloudy
7:00 PM79.0 °F76.0 °F88 %29.77 in4.0 miWSW (250°)5.8 mphOvercast
7:00 PM78.8 °F77.0 °F94 %29.74 in3.7 miWSW (250°)5.8 mphMostly Cloudy
7:30 PM78.8 °F75.2 °F89 %29.77 in3.7 miWNW (290°)3.5 mphMostly Cloudy
8:00 PM78.8 °F75.2 °F89 %29.77 in3.7 miCalmMostly Cloudy
8:30 PM78.8 °F77.0 °F94 %29.80 in1.9 miCalmRain-ThunderstormLight Thunderstorms and Rain
9:00 PM77.0 °F77.0 °F100 %29.80 in0.9 miNE (50°)3.5 mphRain-ThunderstormThunderstorms and Rain
9:30 PM77.0 °F77.0 °F100 %29.80 in1.2 miCalmRainRain
10:00 PM77.0 °F76.0 °F96 %29.84 in1.0 miEast (90°)3.5 mphRainLight Rain
Hourly data recorded from WIOO, located miles away from Pontianak, Indonesia







STORIES FROM OUR PARTNERS